Regional Weather Roundup
Issued by NWS

Home | Current Version | Previous Version | Graphics & Text | Print | Product List | Glossary On
Versions: 1 2 3 4 5 6 7 8 9 10 11 12 13 14 15 16 17 18 19 20 21 22 23 24 25 26 27 28 29 30 31 32 33 34 35 36 37 38 39 40 41 42 43 44 45 46 47 48 49 50
000
ASUS43 KMKX 242211
RWRWI

WISCONSIN REGIONAL WEATHER ROUNDUP
NATIONAL WEATHER SERVICE MILWAUKEE/SULLIVAN WI
500 PM CDT TUE MAY 24 2016

NOTE: "FAIR" INDICATES FEW OR NO CLOUDS BELOW 12,000 FEET WITH NO
SIGNIFICANT WEATHER AND/OR OBSTRUCTIONS TO VISIBILITY.

WIZ001-002-006>008-014>016-023>028-242300-
NORTHWEST WISCONSIN

CITY           SKY/WX    TMP DP  RH WIND       PRES   REMARKS
SUPERIOR ARPT  SUNNY     62  56  81 NE7       29.91S
ASHLAND        PTSUNNY   68  62  81 NE9       29.92R
HAYWARD        SUNNY     79  56  45 VRB6      29.89S HX  80
SIREN          MOSUNNY   81  52  37 NW7       29.89S HX  80
CUMBERLAND     MOSUNNY   79  50  36 NW9       29.90S
RICE LAKE      SUNNY     79  53  40 W8        29.91S
CHETEK         SUNNY     81  52  36 W7        29.90R HX  80
LADYSMITH      CLOUDY    76  57  51 W10       29.92R
EAU CLAIRE     PTSUNNY   81  55  40 NW7       29.89R HX  81
MENOMONIE      SUNNY     83  50  31 W10       29.89S HX  82
NEW RICHMOND   SUNNY     81  48  30 CALM      29.90S HX  80
OSCEOLA        SUNNY     82  55  38 W5        29.92S HX  81
$$

WIZ003>005-009-010-017-018-242300-
NORTH CENTRAL WISCONSIN

CITY           SKY/WX    TMP DP  RH WIND       PRES   REMARKS
MANITOWISH WTR MOSUNNY   75  54  47 SW9       29.88S
ARBOR VITAE    SUNNY     77  54  43 W8        29.89S
WOODRUFF       SUNNY     77  54  43 W8        29.89S
RHINELANDER    MOSUNNY   77  55  46 W10       29.90F
EAGLE RIVER      N/A     75  56  50 SW7       29.89S
LAND O LAKES   MOSUNNY   76  53  44 W9        29.89F
PHILLIPS       MOSUNNY   78  57  48 W6        29.89S
TOMAHAWK       CLOUDY    76  55  47 W6        29.91S
MEDFORD        PTSUNNY   75  60  58 SW8       29.91S
MERRILL        MOSUNNY   77  57  50 W12       29.91S
$$

WIZ029-030-035-036-043>047-242300-
CENTRAL WISCONSIN

CITY           SKY/WX    TMP DP  RH WIND       PRES   REMARKS
WAUSAU         MOSUNNY   80  54  40 W13       29.90R HX  80
MOSINEE        MOSUNNY   79  55  44 W12       29.92
MARSHFIELD     MOSUNNY   79  55  43 W10       29.91R
STEVENS POINT  MOSUNNY   79  55  43 W9        29.91S
WAUPACA        MOSUNNY   83  56  39 SW8       29.91R HX  82
WAUTOMA        NOT AVBL
WISC RAPIDS    MOSUNNY   82  55  39 SW6       29.92S HX  81
CAMP DOUGLAS   SUNNY     79  64  60 W7        29.92R HX  81
$$

WIZ011>013-019>022-031-037>040-048>050-242300-
NORTHEAST WISCONSIN

CITY           SKY/WX    TMP DP  RH WIND       PRES   REMARKS
ANTIGO         PTSUNNY   75  58  54 W8        29.92S
SHAWANO        MOSUNNY   79  65  62 NW6       29.90S HX  81
OCONTO         PTSUNNY   78  61  54 W10       29.88S HX  80
STURGEON BAY   NOT AVBL
GREEN BAY      MOSUNNY   82  57  42 W15       29.89R HX  82
MANITOWOC      PTSUNNY   70  59  68 S17       29.92R
APPLETON       PTSUNNY   81  55  41 SW13      29.89S HX  80
CLINTONVILLE   MOSUNNY   82  50  32 W12       29.89S HX  81
OSHKOSH        PTSUNNY   81  58  45 W8        29.91R HX  81
$$

WIZ032>034-041-042-053>061-242300-
SOUTHWEST WISCONSIN

CITY           SKY/WX    TMP DP  RH WIND       PRES   REMARKS
LA CROSSE      MOSUNNY   82  59  45 SW8       29.91R HX  82
SPARTA         PTSUNNY   81  59  45 W6        29.93R HX  81
VIROQUA        MOSUNNY   82  53  36 SW6       29.95S HX  81
BOSCOBEL       MOSUNNY   84  58  40 W7        29.92R HX  83
PRAIRIE DU CHI MOSUNNY   84  53  35 CALM      29.90F HX  82
PLATTEVILLE    MOSUNNY   82  59  45 SW9       29.93F HX  82
$$

WIZ056-057-062-063-064-067-068-242300-
SOUTH CENTRAL WISCONSIN

CITY           SKY/WX    TMP DP  RH WIND       PRES   REMARKS
REEDSBURG      MOSUNNY   82  58  42 SW8       29.92S HX  82
BARABOO/DELLS  MOSUNNY   80  55  42 SW9       29.93R HX  80
LONE ROCK      PTSUNNY   82  58  43 W8        29.92S HX  82
MINERAL POINT  MOSUNNY   82  55  39 SW7       29.94S HX  82
MADISON        PTSUNNY   81  59  47 VRB5      29.92S HX  81
MIDDLETON      MOSUNNY   82  62  49 SW7       29.93S HX  83
WATERTOWN      MOSUNNY   81  61  50 W12       29.92R HX  82
MONROE         PTSUNNY   81  57  44 SW9       29.93S HX  81
JANESVILLE     PTSUNNY   82  55  39 SW9       29.92R HX  82
$$

WIZ051-052-058>065-066-070>072-242300-
SOUTHEAST WISCONSIN

CITY           SKY/WX    TMP DP  RH WIND       PRES   REMARKS
MILWAUKEE      CLOUDY    84  55  36 SW14      29.92R HX  83
WAUKESHA       MOSUNNY   79  57  47 W8        29.94S HX  80
MILWAUKEE/TIMM SUNNY     81  55  41 W10       29.92S HX  80
RACINE         MOSUNNY   77  53  43 S12       29.93F
BURLINGTON     MOSUNNY   83  52  33 SW12G20   29.92S HX  82
KENOSHA        SUNNY     85  54  34 SW14G23   29.92F HX  83
FOND DU LAC    PTSUNNY   81  58  45 SW10      29.91R HX  81
SHEBOYGAN      CLOUDY    73  63  70 SE9       29.93R
WEST BEND      PTSUNNY   79  59  50 W7        29.92S HX  80
JUNEAU         MOSUNNY   79  58  47 SW20      29.95R HX  80
$$

LSZ147-162-242300-
LAKE SUPERIOR

STATION/POSITION TIME  TEMP    WIND        PRES    WAVE
                       AIR SEA DIR/SP/G            HT/PER
                 (UTC) (F)     (DEG/KT/KT) (MB)    (FT/S)
W MID LAKE BUOY  2150   42 38   20/ 12/ 14 1013.8R   0
DEVILS ISLAND    2200   49      40/ 12/ 12 1013.9R
SAXON HARBOR     2100   49     360/  7/  9 1012.9R
$$

LMZ867-665-643>646-242300-
LAKE MICHIGAN

STATION/POSITION TIME  TEMP    WIND        PRES    WAVE
                       AIR SEA DIR/SP/G            HT/PER
                 (UTC) (F)     (DEG/KT/KT) (MB)    (FT/S)
CHAMBERS ISLAND  2100   73     130/  4/  9 1011.9
N MID LAKE BUOY  2150   48 44  300/  2/  4 1012.8R   2/ 4
NORTHPORT PIER   2100   61     150/  6/ 12 1012.5R
SISTER BAY       2134   74     160/ 10/ 12   N/A
ALGOMA LAKESHORE 2117          210/ 12/ 13   N/A
KEWAUNEE LAKESHO 2112          180/ 14/ 16 1012.0F
SHEBOYGAN LAKESH 2200   62     170/  8/  9 1013.7S
PORT WASHINGTON  2100   63     150/  2/  6 1014.6S
S MID LAKE BUOY  2150   58 49  130/ 10/ 10 1013.8F   1
KENOSHA   LAKESH 2200   62     160/  9/ 12 1013.2S
$$

TC  - TEMPERATURE IN CELSIUS
VSB - VISIBILITY IN STATUTE MILES
WCI - WIND CHILL INDEX
HX  - HEAT INDEX




USA.gov is the U.S. government's official web portal to all federal, state and local government web resources and services.